Location: Omaha
(41.2590°N, 95.9380°W)
Time: 13:57:34
(UTC-06:00)

Tiangong 2 - Pass Details

Date: 16 October 2017
Orbit: 386 x 390 km, 42.8° (Epoch: 12 December)

Event Time Altitude Azimuth Distance (km) Brightness Sun altitude
Exits shadow 05:16:03 20° 76° (ENE) 969 3.8 -27.1°
Drops below altitude 10° 05:17:12 10° 81° (E) 1,421 4.9 -26.9°
Sets 05:19:18 0° 85° (E) 2,278 6.3 -26.5°
